#timestamp,LO_Frequency,Hit,StdDev 
1505678415.9,286047000.9,N
1505678435.7,286046999.7,N
1505678455.6,286046999.8,N
1505678475.4,286046999.9,N
1505678495.2,286046999.8,N
1505678515.1,286047002.6,Y
1505678516.0,286047002.6,P
1505678535.8,286047000.3,N
1505678555.7,286046999.8,N
1505678575.5,286047002.2,N
1505678595.3,286047002.8,N
1505678615.2,286047001.6,N
1505678635.0,286047001.6,N
1505678635.9,286047001.6,N
1505678655.8,286047002.7,N
1505678675.6,286047002.3,N
1505678695.4,286047002.5,N
1505678715.3,286047000.9,N
1505678735.1,286046999.9,N
1505678755.8,286046998.9,N
1505678775.7,286046998.3,N
1505678795.5,286046998.8,N
1505678815.4,286047000.6,N
1505678835.2,286047000.4,N
1505678855.0,286047000.5,N
1505678855.9,286047000.5,N
1505678875.8,286047000.4,N
1505678895.6,286047001.2,N
1505678915.4,286046999.0,N
1505678935.3,286046998.8,N
1505678955.1,286046999.3,N
1505678975.9,286047000.7,N
1505678995.7,286047001.1,N
1505679015.5,286047000.9,N
1505679035.4,286046998.2,N
1505679055.2,286046998.1,N
1505679075.0,286047000.8,N
1505679076.0,286047000.8,N
1505679095.8,286047001.0,N
1505679115.6,286046998.9,N
1505679135.5,286046999.4,N
1505679155.3,286046998.6,N
1505679175.1,286047001.1,N
1505679195.9,286046998.6,N
1505679215.7,286046999.0,N
1505679235.6,286047001.1,N
1505679255.4,286046998.5,N
1505679275.3,286047000.5,N
1505679295.1,286047000.9,N
1505679315.8,286047001.0,N
1505679335.7,286046998.6,N
1505679355.5,286046999.4,N
1505679375.4,286046999.3,N
1505679395.2,286046999.0,N
1505679415.0,286046998.9,N
1505679415.9,286046998.9,N
1505679435.8,286046998.3,N
1505679455.6,286046998.1,N
1505679475.5,286047000.4,N
1505679495.3,286046999.0,N
1505679515.1,286046998.3,N
1505679535.9,286046998.7,N
1505679555.7,286046998.6,N
1505679575.5,286046999.0,N
1505679595.4,286046999.4,N
1505679615.2,286046999.0,N
1505679635.1,286046998.3,N
1505679636.0,286046998.3,N
1505679655.8,286046998.8,N
1505679675.6,286046999.0,N
1505679695.5,286046999.5,N
1505679715.3,286046999.0,N
1505679735.2,286046999.2,N
1505679755.9,286047000.8,N
1505679775.7,286046999.4,N
1505679795.6,286046999.1,N
1505679815.4,286046998.8,N
1505679835.3,286046998.7,N
1505679855.1,286046998.9,N
1505679856.0,286046998.9,N
1505679875.8,286046997.2,Y
1505679895.7,286046998.7,P
1505679915.5,286046999.4,P
1505679935.3,286046998.9,P
1505679955.2,286046999.4,N
1505679975.0,286046998.6,Y
1505679975.9,286046998.6,P
1505679995.8,286047000.4,N
1505680015.6,286047000.7,N
1505680035.4,286047001.1,N
1505680055.3,286046998.3,N
1505680075.1,286047000.8,N
1505680095.9,286047001.1,N
1505680115.7,286047001.0,N
1505680135.5,286047000.9,N
1505680155.4,286046998.1,N
1505680175.2,286046998.6,N
1505680195.0,286047000.8,N
1505680196.0,286047000.8,N
1505680215.8,286047000.5,N
1505680235.6,286047000.1,N
1505680255.5,286047001.0,N
1505680275.3,286047001.0,N
1505680295.1,286047002.8,N
1505680315.9,286047000.7,N
1505680335.7,286047000.6,N
1505680355.6,286046998.2,N
1505680375.4,286047000.9,N
1505680395.2,286047000.9,N
1505680415.1,286047001.0,N
1505680416.0,286047001.0,N
1505680435.8,286047001.0,N
1505680455.6,286047000.4,N
1505680475.5,286047000.3,N
1505680495.3,286047000.7,N
1505680515.2,286047000.9,N
1505680535.9,286046998.2,N
1505680555.7,286046998.5,N
1505680575.6,286046998.2,N
1505680595.4,286046998.6,N
1505680615.2,286046998.6,N
1505680635.1,286046999.1,N
1505680636.0,286046999.1,N
1505680655.8,286046998.5,N
1505680675.7,286046999.3,N
1505680695.5,286046999.6,N
1505680715.3,286046998.2,N
1505680735.2,286046998.1,N
1505680755.0,286046998.2,N
1505680755.9,286046998.2,N
1505680775.8,286046998.2,N
1505680795.6,286046998.8,N
1505680815.4,286046999.4,N
1505680835.3,286046998.7,N
1505680855.1,286046998.7,N
1505680875.8,286046998.7,N
1505680895.7,286046998.2,N
1505680915.5,286047000.8,N
1505680935.4,286046999.1,N
1505680955.2,286046999.3,N
1505680975.0,286046999.5,N
1505680975.9,286046999.5,N
1505680995.8,286046997.7,N
1505681015.6,286046997.9,N
1505681035.5,286046997.7,N
1505681055.3,286046997.4,Y
1505681075.1,286046999.4,P
1505681095.9,286046998.2,P
1505681115.7,286046998.3,P
1505681135.6,286046998.9,N
1505681155.4,286047000.6,N
1505681175.2,286046998.5,N
1505681195.1,286047001.1,N
1505681196.0,286047001.1,N
1505681215.8,286046998.1,N
1505681235.6,286047001.0,N
1505681255.5,286046999.1,N
1505681275.3,286046998.4,N
1505681295.2,286046998.9,N
1505681315.9,286046999.9,N
1505681335.7,286047001.2,N
1505681355.6,286047000.9,N
1505681375.4,286047001.1,N
1505681395.2,286047001.0,N
1505681415.1,286047000.7,N
1505681416.0,286047000.7,N
1505681435.8,286047000.5,N
1505681455.7,286047000.6,N
1505681475.5,286047001.0,N
1505681495.3,286047001.1,N
1505681515.2,286046998.3,N
1505681535.0,286046999.4,N
1505681535.9,286046999.4,N
1505681555.8,286046999.0,N
1505681575.6,286046998.4,N
1505681595.4,286046998.5,N
1505681615.3,286046998.4,N
1505681635.1,286046999.4,N
1505681655.8,286046998.8,N
1505681675.7,286046998.4,N
1505681695.5,286047000.5,N
1505681715.4,286047000.0,N
1505681735.2,286047000.2,N
1505681755.0,286047002.6,N
1505681755.9,286047002.6,N
1505681775.8,286047002.4,N
1505681795.6,286047001.9,N
1505681815.4,286047003.9,N
1505681835.3,286047003.7,N
1505681855.1,286047004.3,N
1505681875.9,286047002.5,N
1505681895.7,286047001.9,N
1505681915.5,286047002.5,N
1505681935.4,286047002.1,N
1505681955.2,286047001.6,N
1505681975.0,286047002.0,N
1505681976.0,286047002.0,N
1505681995.8,286047001.4,N
